AVUM R/B (49467 NORAD) Tracking and Keplerian Element Data

This shows tracking and keplerian element data for the satellite.

Feedback or suggestion? Click here.




ElementValue
Catalog49467
NameAVUM R/B
Epoch Orbit292
Epoch Day339.84693531
Epoch Year2021
RAAN107.995
Inclination74.9525
Eccentricity0.0142549
Argument of Perigee167.7838
Mean Anonmoly192.6886
Mean Motion15.07079632
Decay Rate2.543E-05
L11 49467U 21105D 21339.84693531 .00002543 00000+0 13618-3 0 9991
L22 49467 74.9525 107.9950 0142549 167.7838 192.6886 15.07079632 2923

Live tracking and technical data element details for AVUM R/B (NORAD 49467). AVUM R/B can be tracked NOW for your location showing map with azimuth and elevation plus other details from your city location.

Track the satellite on the map from your city or location and see movement details for azimuth, elevation, latitude, longitude, range, height, and movement on the map or in text.







IsCatalogInMostPopularTable: catalog: 49467, numindb: 1
Update: records affected: 1



GetName: 49467 AVUM R/B

Hit Count: updated at: Wed, 08 Dec 2021 15:03:04 GMT